Total_Precipitation_Accumulation
2.08 2.12 1.65 1.03 0.82 0.70 0.65 0.68 0.61 0.52 0.48 0.67 0.73 0.68 0.69 0.67 0.65 0.68 0.71 0.76 0.90 1.10 1.24 1.46 1.69 2.09 2.34 2.65 3.00 3.14 3.43 3.66 3.86 4.08 4.13 3.91 3.63 3.41 3.24 3.20 3.12 2.94 2.79 2.71
2.01 1.63 0.92 0.73 0.74 0.76 0.79 0.84 0.67 0.56 0.51 0.65 0.68 0.64 0.69 0.76 0.75 0.68 0.66 0.70 0.79 0.96 1.10 1.27 1.53 1.89 2.10 2.29 2.53 2.76 3.01 3.29 3.51 3.63 3.72 3.82 3.84 3.60 3.31 3.23 3.24 3.20 3.07 2.93
1.43 0.98 0.68 0.79 0.89 0.97 0.89 0.84 0.71 0.67 0.61 0.71 0.73 0.76 0.69 0.73 0.75 0.74 0.73 0.74 0.80 0.95 1.01 1.13 1.33 1.72 1.93 2.03 2.23 2.45 2.70 2.88 3.02 3.39 3.72 3.81 4.06 3.99 3.54 3.16 2.98 3.11 3.21 3.19
1.18 0.71 0.74 0.92 0.88 0.93 0.97 0.63 0.64 0.72 0.97 1.08 0.84 1.05 0.78 0.71 0.71 0.77 0.81 0.84 0.90 0.96 1.02 1.11 1.20 1.44 1.67 1.76 1.96 2.22 2.52 2.75 2.82 3.12 3.40 3.42 3.38 3.47 3.26 3.04 2.99 3.10 3.19 3.24
1.25 0.81 0.83 1.00 0.76 0.78 0.81 0.60 0.73 0.85 1.05 1.17 0.82 0.98 0.88 0.66 0.77 0.82 0.84 0.91 1.01 0.94 0.97 1.10 1.17 1.25 1.45 1.57 1.68 1.93 2.30 2.60 2.75 2.86 3.07 3.27 3.27 3.27 3.35 3.29 3.16 3.06 3.02 3.09
0.92 0.81 0.92 0.86 0.63 0.73 0.83 0.95 1.09 1.16 1.56 1.67 0.77 0.85 0.94 0.82 0.88 0.82 0.78 0.86 0.97 0.92 0.95 1.02 1.07 1.12 1.30 1.41 1.44 1.65 1.93 2.35 2.71 2.83 2.89 2.99 3.05 3.00 3.11 3.24 3.21 3.14 3.00 2.93
1.12 0.92 0.85 0.85 1.03 1.04 1.28 1.92 2.48 2.41 2.26 1.31 0.50 0.69 0.99 0.86 0.79 0.81 0.79 0.79 0.86 0.92 0.94 0.97 1.02 1.11 1.20 1.31 1.34 1.44 1.60 1.94 2.36 2.61 2.65 2.71 2.79 2.82 2.79 2.96 3.13 3.13 2.99 2.82
1.23 1.08 0.77 0.87 1.21 1.31 1.25 1.68 2.01 1.67 1.11 0.63 0.45 0.69 0.91 0.78 0.69 0.65 0.61 0.62 0.71 0.82 0.85 0.87 0.90 0.96 1.00 1.07 1.19 1.31 1.40 1.57 1.84 2.12 2.30 2.44 2.55 2.60 2.52 2.52 2.78 2.93 2.84 2.75
1.10 0.88 0.52 0.63 0.79 0.99 1.25 1.34 1.20 1.52 1.08 0.75 0.59 0.63 0.67 0.52 0.53 0.54 0.52 0.53 0.62 0.68 0.72 0.73 0.74 0.79 0.82 0.86 0.97 1.11 1.17 1.26 1.44 1.70 1.95 2.17 2.28 2.41 2.45 2.36 2.44 2.72 2.76 2.63
1.13 1.14 0.62 0.65 0.92 1.06 1.14 1.13 1.40 2.14 1.78 1.05 0.61 0.56 0.69 0.59 0.56 0.59 0.56 0.52 0.55 0.57 0.62 0.66 0.67 0.72 0.76 0.80 0.77 0.82 0.97 1.12 1.25 1.37 1.65 1.88 2.05 2.17 2.27 2.33 2.32 2.40 2.50 2.51
1.00 1.39 0.95 0.88 1.17 1.14 1.16 1.42 1.62 1.76 1.51 1.33 0.91 0.77 0.72 0.63 0.60 0.61 0.60 0.55 0.54 0.56 0.62 0.64 0.64 0.68 0.76 0.80 0.74 0.71 0.82 0.98 1.10 1.16 1.36 1.55 1.73 1.91 2.04 2.13 2.15 2.18 2.23 2.32
0.97 1.57 1.24 0.81 0.69 0.74 0.98 1.17 1.44 2.00 1.58 1.22 1.05 0.86 0.63 0.55 0.54 0.57 0.60 0.59 0.58 0.61 0.66 0.66 0.64 0.66 0.74 0.82 0.81 0.75 0.79 0.86 0.98 1.06 1.17 1.38 1.48 1.64 1.82 1.94 1.96 1.97 2.01 2.06
1.40 1.94 1.74 1.20 1.01 0.99 1.14 1.04 1.12 1.60 2.01 1.60 1.29 0.90 0.56 0.45 0.43 0.49 0.56 0.59 0.59 0.62 0.69 0.68 0.68 0.69 0.74 0.81 0.87 0.79 0.79 0.82 0.89 1.02 1.06 1.20 1.35 1.45 1.54 1.66 1.76 1.81 1.85 1.93
1.71 1.95 1.57 1.31 1.21 1.21 1.13 0.91 1.05 1.91 2.47 1.51 0.90 0.63 0.46 0.44 0.51 0.53 0.54 0.59 0.63 0.64 0.68 0.70 0.76 0.77 0.80 0.82 0.87 0.82 0.82 0.81 0.81 0.94 1.02 1.05 1.21 1.34 1.40 1.46 1.55 1.61 1.63 1.72
1.43 1.77 1.12 0.74 0.60 0.79 0.85 0.83 0.97 1.44 1.51 1.46 0.89 0.59 0.56 0.56 0.63 0.63 0.59 0.57 0.58 0.59 0.62 0.66 0.71 0.77 0.81 0.82 0.89 0.88 0.86 0.86 0.82 0.87 0.98 1.02 1.08 1.17 1.29 1.40 1.48 1.57 1.58 1.61
1.19 1.51 1.14 0.81 0.51 0.60 0.70 0.67 0.72 0.86 0.96 0.99 0.75 0.71 0.63 0.57 0.53 0.52 0.52 0.51 0.55 0.58 0.61 0.62 0.62 0.68 0.72 0.81 0.89 0.95 0.94 0.92 0.88 0.85 0.90 0.98 1.06 1.10 1.16 1.25 1.37 1.47 1.57 1.62
1.11 1.38 1.54 1.06 0.58 0.75 0.92 0.81 0.79 0.82 0.83 0.86 0.92 0.85 0.67 0.60 0.56 0.57 0.54 0.51 0.52 0.53 0.54 0.56 0.58 0.65 0.68 0.74 0.84 0.93 0.96 0.93 0.91 0.90 0.89 0.93 1.02 1.12 1.17 1.19 1.28 1.45 1.56 1.73
0.83 1.23 1.80 1.35 0.89 1.11 0.88 0.66 0.67 0.73 0.77 0.81 0.80 0.70 0.65 0.62 0.61 0.60 0.56 0.51 0.49 0.49 0.50 0.50 0.53 0.55 0.58 0.63 0.72 0.84 0.89 0.92 0.93 0.93 0.96 0.98 1.00 1.13 1.24 1.27 1.32 1.44 1.55 1.71
0.49 1.07 1.81 1.59 1.16 0.76 0.50 0.46 0.64 0.74 0.79 0.76 0.63 0.52 0.49 0.50 0.51 0.53 0.49 0.47 0.50 0.52 0.55 0.54 0.53 0.56 0.55 0.58 0.66 0.78 0.85 0.87 0.90 0.94 0.98 1.03 1.07 1.19 1.30 1.32 1.36 1.43 1.52 1.60
0.44 0.90 1.75 1.66 1.38 0.77 0.52 0.33 0.38 0.60 0.87 0.64 0.56 0.55 0.53 0.54 0.63 0.57 0.47 0.45 0.48 0.47 0.49 0.55 0.56 0.54 0.57 0.61 0.65 0.75 0.86 0.95 1.01 1.04 1.08 1.12 1.21 1.34 1.41 1.41 1.40 1.39 1.42 1.44
0.66 1.19 1.57 1.35 1.29 0.71 0.49 0.30 0.32 0.83 0.99 0.56 0.53 0.57 0.60 0.66 0.69 0.58 0.46 0.42 0.46 0.49 0.49 0.51 0.55 0.58 0.62 0.66 0.67 0.71 0.79 0.97 1.07 1.12 1.14 1.16 1.24 1.32 1.39 1.38 1.33 1.32 1.29 1.28
0.60 0.88 0.98 1.06 1.37 0.98 0.50 0.39 0.73 0.95 0.62 0.53 0.53 0.56 0.60 0.58 0.49 0.43 0.43 0.42 0.42 0.43 0.45 0.51 0.58 0.62 0.61 0.68 0.76 0.77 0.82 0.92 0.99 1.05 1.07 1.07 1.10 1.16 1.26 1.30 1.27 1.24 1.25 1.24
0.64 0.84 0.91 0.97 1.05 0.89 0.68 0.74 0.79 0.68 0.61 0.53 0.53 0.52 0.52 0.50 0.47 0.41 0.39 0.40 0.41 0.44 0.46 0.52 0.62 0.68 0.69 0.70 0.77 0.83 0.81 0.82 0.87 0.94 0.99 0.98 0.96 0.98 1.06 1.14 1.19 1.21 1.23 1.24
0.60 0.53 0.71 0.83 0.79 0.68 0.64 0.56 0.52 0.52 0.57 0.52 0.48 0.48 0.49 0.51 0.47 0.44 0.41 0.41 0.40 0.41 0.46 0.53 0.58 0.63 0.66 0.67 0.70 0.74 0.71 0.70 0.74 0.80 0.87 0.91 0.91 0.91 0.92 0.97 1.07 1.15 1.21 1.22
0.64 0.58 0.66 0.72 0.62 0.52 0.49 0.48 0.49 0.46 0.42 0.39 0.37 0.38 0.44 0.46 0.44 0.44 0.45 0.44 0.44 0.45 0.48 0.53 0.60 0.65 0.67 0.64 0.65 0.66 0.65 0.65 0.69 0.71 0.76 0.79 0.86 0.91 0.95 0.96 1.04 1.15 1.21 1.33
0.58 0.66 0.77 0.80 0.62 0.64 0.61 0.51 0.46 0.44 0.42 0.41 0.38 0.35 0.34 0.38 0.43 0.40 0.41 0.41 0.43 0.49 0.50 0.52 0.55 0.61 0.68 0.67 0.64 0.62 0.63 0.65 0.72 0.75 0.75 0.78 0.86 0.90 0.92 0.95 1.01 1.10 1.16 1.23